GFSSE_sfc_temp_336.txt.gz
Temp
71 75 80 80 80 79 79 78 78 78 78 78 78 78 78 78 78 78 79 79 79 79 80 80 80 80 80 80 80 80 80 80 80 80 80 80 80 80 80 80 80 81 80
72 75 80 80 79 79 79 78 78 78 78 78 78 78 78 78 78 78 79 79 80 80 80 80 80 80 80 80 79 79 80 80 80 80 80 80 80 81 80 80 79 80 79
72 74 77 79 79 79 78 78 78 78 78 78 78 78 78 78 78 78 78 79 80 80 80 80 80 80 80 80 79 79 79 79 79 79 79 76 79 81 80 79 79 79 79
73 72 74 79 79 78 78 78 78 78 78 78 78 78 78 78 78 78 79 80 80 80 80 80 80 80 80 80 79 79 79 79 80 77 76 76 80 80 79 78 79 78 78
71 72 74 79 78 78 78 78 78 78 78 78 78 78 78 78 78 78 79 79 80 80 80 80 79 80 79 79 79 79 79 78 78 76 75 75 75 79 78 78 78 78 78
70 71 78 78 78 78 78 77 78 78 78 78 78 78 78 78 78 78 79 79 79 79 79 79 79 78 78 79 79 79 78 78 75 75 75 75 77 79 79 78 78 77 77
69 71 75 78 78 78 78 78 78 78 78 78 78 78 78 78 78 78 78 79 79 79 79 79 78 78 78 79 79 79 78 77 74 74 75 73 76 77 78 78 77 77 77
70 71 73 78 78 78 78 77 77 77 78 78 78 78 78 78 78 78 78 78 78 78 79 78 78 77 77 78 78 77 78 77 76 73 73 75 76 77 77 77 77 77 77
74 70 71 72 75 78 77 77 77 77 77 77 77 77 78 78 77 77 77 78 78 78 78 78 78 77 77 77 76 77 76 75 72 73 75 74 77 77 77 77 77 76 76
74 69 68 69 70 70 71 77 77 77 77 77 77 77 77 77 77 77 75 77 78 78 78 78 78 77 77 76 76 76 75 74 73 74 74 74 77 77 77 77 76 76 76
72 69 68 68 67 68 69 74 77 78 77 77 77 77 75 71 72 74 77 77 78 78 78 78 77 77 78 77 76 75 73 72 73 73 74 76 77 77 77 77 76 76 75
70 70 67 67 66 67 73 69 69 71 70 70 71 71 70 70 70 75 76 78 77 78 77 76 76 75 75 72 74 73 72 71 72 72 74 76 77 77 77 76 76 76 76
69 71 69 66 66 66 68 66 66 66 67 68 69 69 69 70 69 70 70 71 71 75 73 72 71 70 70 71 71 71 71 71 71 72 75 76 76 76 77 76 76 75 75
68 70 69 67 66 65 66 66 66 66 66 66 68 69 67 68 69 69 70 70 70 72 72 71 69 68 69 70 71 71 70 70 70 70 72 75 75 76 75 76 77 75 75
68 69 69 68 66 66 65 66 65 65 67 67 68 69 68 68 69 70 71 69 69 71 71 71 69 68 69 70 70 69 69 69 69 69 69 75 75 75 75 75 76 76 76
70 69 69 68 68 67 65 65 66 66 67 67 68 69 70 69 70 71 70 69 69 70 70 70 69 67 68 70 69 69 68 68 68 68 69 71 74 74 74 74 75 75 75
72 72 69 69 68 67 66 65 66 67 69 67 68 69 71 71 70 71 70 70 71 70 71 69 68 68 67 68 68 68 68 67 67 67 68 69 71 74 74 74 74 74 74
72 71 70 75 70 68 66 66 66 67 67 68 68 69 71 72 72 70 71 69 71 70 70 68 66 65 65 66 66 66 66 66 66 66 67 68 68 70 73 74 74 74 74
73 71 69 71 69 68 67 67 66 67 67 68 69 69 71 73 74 71 70 69 69 68 68 68 66 65 64 64 65 65 65 65 65 68 66 66 67 69 69 72 73 73 73
70 71 70 68 68 67 68 67 68 68 67 68 69 70 71 72 74 71 69 68 69 68 67 66 66 65 65 65 69 69 64 64 64 64 66 67 66 67 67 68 71 73 73
68 67 67 68 67 69 67 67 67 66 68 69 69 70 71 72 73 70 69 68 68 67 67 66 66 65 65 64 64 63 63 63 62 63 64 65 65 66 66 67 68 69 72
70 68 67 68 67 68 69 68 69 68 69 69 70 70 71 71 71 70 68 66 66 66 66 66 66 65 64 63 63 60 60 62 62 63 63 64 65 66 67 67 67 67 68
68 68 69 67 67 68 68 68 68 69 68 68 69 68 70 71 71 69 68 67 66 66 66 65 65 64 64 63 63 64 58 58 58 62 61 63 64 64 66 67 66 67 66
72 71 69 68 67 68 68 68 69 68 67 67 68 68 69 70 70 70 68 67 66 66 64 65 66 64 62 61 62 63 62 62 61 59 61 62 63 64 64 66 67 67 67
74 71 70 68 67 67 68 68 68 67 67 67 67 68 68 68 69 70 68 68 66 64 64 65 65 64 63 62 62 61 61 61 60 60 60 62 60 64 66 66 67 67 67
71 71 68 68 68 68 68 67 67 67 67 66 67 67 67 67 67 68 69 67 66 65 65 64 64 63 63 62 62 61 60 60 59 57 57 59 61 64 65 66 66 66 66

GFSSE_sfc_temp_339.txt.gz
Temp
84 86 80 80 80 79 79 79 79 79 79 79 79 79 79 79 79 79 79 79 79 80 80 80 80 80 80 81 80 80 80 80 81 81 81 81 81 80 80 80 81 87 80
86 86 80 80 79 79 79 79 79 79 79 79 79 79 79 79 79 79 79 80 80 80 80 80 80 80 80 80 80 80 80 80 80 81 81 81 81 81 80 80 81 84 80
85 85 83 80 79 79 78 78 78 78 78 78 79 79 79 79 79 79 79 80 80 80 80 80 80 80 80 80 79 79 79 79 80 80 79 86 87 81 80 80 79 79 79
84 84 84 80 79 79 78 78 78 78 78 78 78 78 79 79 79 80 80 80 80 80 80 80 80 80 80 80 79 79 79 80 79 79 87 86 87 79 79 79 79 78 78
82 83 83 79 79 78 78 78 78 78 78 79 79 78 79 78 79 79 79 80 80 80 80 80 80 79 79 80 79 79 78 79 78 83 87 87 87 81 79 79 79 78 79
83 85 81 79 78 78 78 78 78 78 78 79 79 78 79 78 79 79 79 79 79 80 80 79 79 79 79 79 79 79 78 77 80 87 84 82 86 79 79 78 78 78 77
84 85 85 78 78 78 78 78 78 78 78 79 79 78 78 78 78 79 79 79 79 80 79 79 79 79 79 80 80 78 77 77 88 86 82 83 84 77 78 78 77 77 77
84 85 84 79 78 78 78 78 78 78 78 78 78 78 78 78 78 78 78 79 79 79 79 79 78 78 78 78 78 78 77 78 85 80 83 86 78 77 78 78 78 77 77
85 84 85 85 81 78 77 77 77 78 78 78 77 78 78 78 78 78 78 78 78 78 78 78 78 78 78 78 77 77 77 77 87 85 85 86 77 77 77 78 78 77 77
81 84 84 84 85 85 84 77 77 78 78 77 78 78 77 78 77 77 76 77 78 78 78 78 78 78 77 77 77 76 76 79 87 86 84 83 77 77 77 77 77 77 76
77 81 83 83 83 84 86 82 78 78 78 78 79 78 78 85 85 85 78 78 78 78 78 78 78 78 78 78 77 76 78 87 86 86 86 77 76 77 77 77 77 77 76
76 76 82 81 83 83 83 84 83 84 85 83 84 82 86 83 83 85 81 78 78 77 77 77 76 76 79 86 85 78 87 85 85 84 84 76 77 77 77 77 76 76 76
80 79 80 80 79 82 84 82 83 83 83 82 81 81 81 83 83 86 87 88 85 77 86 83 85 86 82 87 86 85 85 85 86 85 80 76 76 77 77 76 75 75 75
79 80 80 81 79 79 82 81 82 82 81 83 83 81 81 83 82 82 81 85 84 84 83 81 85 81 82 83 85 85 85 86 86 85 81 76 76 76 76 76 76 75 75
79 79 79 79 78 79 78 81 81 81 81 83 82 81 82 82 81 80 81 80 80 82 83 79 82 83 81 82 83 83 83 83 83 84 84 75 75 75 75 75 76 77 75
82 80 81 80 78 79 78 78 79 80 81 81 81 82 80 82 81 79 83 82 79 79 81 82 77 76 83 83 81 81 81 83 82 81 84 83 74 74 74 75 75 76 76
83 83 79 79 79 77 77 78 80 81 82 82 81 79 80 81 76 77 81 83 81 83 79 79 79 78 82 82 80 81 81 79 80 79 80 83 81 74 74 74 75 75 75
83 81 81 83 80 77 77 78 80 81 81 82 81 82 81 81 76 75 81 83 83 81 81 81 79 79 80 80 79 80 80 79 79 78 79 80 80 82 76 74 74 74 74
82 81 80 80 82 79 78 79 78 77 79 81 82 82 81 81 80 74 77 82 80 82 80 80 79 79 78 78 79 79 79 79 79 81 78 77 78 79 80 75 74 74 74
82 81 81 80 80 78 79 77 80 79 80 81 82 83 81 83 82 80 81 79 80 80 79 79 77 78 78 79 81 81 80 79 78 77 77 79 79 78 78 78 78 78 73
81 79 79 78 77 78 78 78 79 78 80 80 81 80 81 81 82 79 81 79 77 75 77 76 77 75 77 77 76 77 78 78 75 76 77 77 77 77 78 77 78 80 79
80 78 79 78 77 77 80 79 81 81 82 83 83 80 81 81 82 81 79 79 76 78 74 75 74 76 75 75 74 73 71 75 75 76 77 76 76 78 77 77 78 77 78
80 78 79 77 77 77 77 79 78 80 79 79 80 79 81 80 81 80 79 78 76 76 76 73 75 73 74 75 72 73 69 68 72 76 74 76 75 76 77 78 77 77 76
82 81 79 77 76 77 77 78 78 80 78 81 78 81 81 81 81 80 79 78 77 78 75 74 74 74 71 70 72 72 72 72 69 68 73 75 75 74 75 77 78 76 76
85 82 78 77 76 76 76 79 79 78 81 80 80 77 78 77 79 80 79 76 75 77 73 71 70 71 73 70 67 69 70 72 72 69 68 73 74 73 74 74 77 78 77
86 84 79 76 75 76 76 77 77 77 77 78 78 77 74 78 78 77 77 77 76 75 71 70 71 70 68 68 70 70 67 67 70 66 65 70 72 75 77 77 75 75 76

GFSSE_sfc_temp_342.txt.gz
Temp
95 92 80 81 80 80 80 79 79 79 79 79 79 79 79 79 79 79 80 80 80 80 80 80 80 80 81 81 81 80 80 81 81 81 81 81 81 81 80 81 81 90 80
97 92 81 80 80 80 80 79 79 79 79 79 79 79 79 79 79 79 80 80 80 81 81 81 81 80 80 80 80 80 80 80 80 81 81 81 82 81 80 81 80 84 80
95 91 88 80 80 80 79 79 79 79 79 79 79 79 79 79 80 80 80 80 80 80 80 81 81 81 80 80 80 80 80 80 80 80 81 93 91 80 80 80 80 80 79
93 91 89 80 80 79 79 79 79 79 79 79 79 79 79 80 80 80 80 80 80 80 80 80 80 81 80 80 80 80 80 80 79 80 89 93 92 79 80 79 79 79 79
91 91 87 80 79 79 79 79 79 79 79 79 79 79 79 79 79 79 80 80 80 80 80 80 80 80 80 80 80 79 79 80 79 84 92 90 89 82 79 79 79 79 79
92 94 82 79 79 79 79 79 79 79 79 79 79 79 79 79 79 79 79 80 80 80 80 80 80 80 80 80 80 79 79 79 80 91 91 89 91 79 79 79 79 78 78
95 94 89 79 79 79 79 79 79 79 79 79 79 79 79 79 79 79 79 80 80 80 80 80 80 80 80 80 80 79 79 80 87 92 92 91 87 78 79 79 78 77 77
95 95 89 80 79 78 79 79 78 79 79 79 79 79 79 79 79 79 79 79 79 79 79 79 79 79 79 79 79 78 78 79 90 89 91 86 79 78 79 79 78 77 77
98 96 94 91 83 78 78 78 78 78 78 78 78 78 79 78 78 78 79 79 79 79 79 79 79 78 78 78 78 78 78 80 94 93 92 89 77 78 79 79 79 79 78
96 97 97 94 93 91 89 78 78 78 78 78 78 78 78 79 78 78 78 79 79 79 79 79 79 79 78 78 77 77 78 81 94 94 91 85 77 78 78 78 78 78 78
94 96 97 96 95 96 96 87 79 78 79 78 80 78 79 92 90 88 79 79 79 79 78 78 78 79 79 78 77 77 78 94 94 93 89 77 78 78 78 77 78 78 77
90 94 96 93 95 95 94 91 91 90 91 90 91 88 93 90 91 91 84 79 79 78 78 77 77 79 79 91 89 81 95 93 93 92 86 77 77 78 77 77 77 77 76
93 92 95 91 91 94 94 92 93 92 91 90 88 89 90 91 90 94 92 87 88 80 92 90 89 93 89 93 91 91 91 92 92 92 81 76 77 77 77 77 76 76 76
91 90 91 92 89 89 94 92 93 92 91 91 91 88 89 89 89 91 94 92 90 93 90 90 91 88 89 90 92 91 91 91 90 91 81 76 76 76 76 77 76 76 75
91 90 90 90 87 87 88 91 91 91 90 91 91 89 91 90 89 88 91 92 91 92 91 90 90 90 88 89 93 91 89 89 88 90 89 75 75 75 75 76 77 76 75
92 90 91 90 87 88 86 88 89 89 91 90 91 90 87 89 88 88 88 90 89 92 90 92 91 90 90 89 89 89 89 90 89 87 89 84 75 75 75 75 76 76 76
93 91 88 88 88 85 84 86 89 91 91 90 90 87 87 87 86 85 87 89 88 90 87 87 87 89 89 91 88 89 89 87 88 87 88 88 81 74 74 75 75 76 76
93 91 89 92 89 85 85 87 89 91 91 90 91 90 88 87 85 84 88 92 92 89 89 88 87 87 87 89 87 88 90 88 87 86 86 87 89 88 75 75 75 75 75
91 91 89 89 91 86 84 87 86 86 87 90 91 91 89 88 89 84 88 91 86 89 88 86 85 84 85 85 86 86 86 87 86 88 85 84 84 85 87 75 74 74 74
92 90 89 89 87 87 87 85 88 89 88 90 90 91 89 89 89 86 89 87 86 88 86 86 82 84 84 86 87 88 86 87 86 85 84 85 85 84 84 83 81 80 74
91 88 87 86 85 86 86 86 86 87 88 89 90 88 88 89 89 86 89 86 86 85 84 82 83 80 82 84 81 83 84 84 82 83 84 85 85 85 84 84 84 86 81
90 88 86 86 85 84 87 86 89 89 91 91 91 89 88 88 88 87 86 87 84 86 81 81 80 82 83 84 79 79 77 80 80 83 84 84 84 86 85 84 84 83 84
90 88 86 86 85 84 86 87 86 87 87 88 89 88 88 87 88 87 85 85 84 84 85 81 80 79 82 82 79 78 72 71 79 85 82 84 82 84 84 84 83 82 82
93 91 88 86 84 85 84 86 83 85 86 89 89 90 88 87 86 87 85 85 83 85 84 82 83 81 79 79 81 80 77 75 73 75 80 82 83 82 82 84 85 83 82
95 93 89 86 84 85 84 84 85 83 90 90 89 86 84 85 83 86 85 84 81 80 81 79 80 78 81 78 79 76 77 75 75 70 70 79 75 81 84 84 84 85 83
99 96 92 86 84 84 84 82 82 84 84 86 85 84 82 82 82 82 85 83 82 80 77 74 79 78 78 77 79 79 74 70 70 68 67 71 71 79 78 79 80 82 83

GFSSE_sfc_temp_345.txt.gz
Temp
97 90 81 81 81 80 80 79 79 79 79 79 79 79 79 79 80 80 80 80 80 80 81 81 81 81 81 81 81 81 81 81 81 82 82 81 81 81 81 82 83 87 81
98 92 80 80 80 80 80 79 79 79 79 79 79 79 79 79 79 80 80 80 80 81 81 81 81 81 80 81 81 80 81 80 81 81 81 81 81 81 81 81 81 83 80
96 90 87 80 80 80 79 79 79 79 79 79 79 79 79 80 80 80 80 80 80 80 81 81 81 81 81 81 81 80 80 80 80 81 82 82 87 80 80 80 80 80 80
95 92 89 81 80 80 79 79 79 79 79 79 79 79 80 80 80 80 80 80 80 81 81 81 81 81 80 81 80 80 80 80 81 81 89 83 88 80 80 80 80 79 79
95 93 85 80 80 79 79 79 79 79 79 79 79 80 80 80 80 80 80 80 81 81 81 80 80 80 80 80 80 80 80 81 81 84 87 87 75 82 80 80 80 80 79
97 96 82 80 79 79 79 79 79 79 79 79 79 79 79 79 79 79 80 80 80 80 81 81 80 80 80 80 80 79 80 80 80 77 84 86 86 79 80 80 79 79 79
99 94 88 79 79 79 79 79 79 79 79 79 79 79 79 79 79 79 80 80 80 80 80 80 80 80 81 80 80 79 80 82 87 86 83 86 84 78 79 79 79 78 78
100 96 88 80 79 79 79 79 79 79 79 79 79 79 79 79 79 79 79 79 79 79 80 79 79 79 79 79 79 78 79 81 90 92 83 86 78 79 79 79 79 79 78
102 98 94 90 83 79 79 79 79 79 79 79 79 79 79 79 79 79 79 79 79 79 79 80 79 79 78 78 78 78 80 82 82 90 85 84 78 79 79 79 79 79 79
102 100 98 94 92 90 87 78 79 79 78 78 78 79 79 79 79 79 78 79 79 79 79 79 79 79 78 78 78 78 80 81 92 87 85 82 78 78 78 78 79 79 78
100 101 101 98 96 97 95 86 79 79 79 79 80 79 79 89 87 84 80 79 79 79 79 79 79 80 79 78 79 79 80 94 96 88 85 78 78 78 78 78 78 78 78
97 99 102 98 99 100 98 89 90 89 89 88 89 86 86 91 88 89 85 79 79 79 80 79 79 80 80 89 89 82 92 95 94 89 82 77 78 78 78 77 78 77 77
98 98 101 97 96 99 98 93 94 93 92 92 91 91 92 92 90 83 83 86 83 81 86 82 84 87 90 93 93 92 93 94 93 89 80 77 77 77 77 77 76 76 76
96 96 98 97 95 95 98 96 96 95 94 93 93 90 91 84 88 88 87 86 86 93 90 92 91 89 91 92 93 93 93 92 92 90 80 76 76 77 77 77 76 76 76
96 95 95 94 91 92 93 95 96 95 94 94 94 92 93 87 82 86 89 91 90 93 90 91 90 90 89 90 93 91 91 91 90 91 84 76 76 76 76 77 77 76 76
97 94 95 95 90 91 90 92 92 93 94 93 93 93 90 89 83 87 76 82 91 92 92 92 91 89 87 89 90 89 89 91 89 89 89 81 76 76 75 76 76 77 76
98 96 92 92 91 88 87 89 92 93 94 93 93 91 90 89 88 87 81 90 89 91 88 88 87 88 89 91 86 89 89 87 89 87 88 87 79 75 75 75 76 76 76
97 94 92 96 93 87 87 89 92 94 93 93 93 93 89 89 89 86 88 79 89 90 90 91 87 88 88 88 87 89 90 89 88 87 87 87 88 84 76 75 75 76 76
95 94 91 92 94 88 87 89 89 90 90 93 93 93 90 90 89 88 89 91 89 90 90 89 88 86 84 85 88 87 88 88 88 91 86 84 85 85 87 75 75 75 75
95 94 92 91 91 89 89 87 90 90 90 92 92 93 92 91 91 89 90 89 89 88 89 88 84 87 85 86 89 89 88 88 88 87 83 85 86 86 86 83 79 78 74
95 92 91 89 88 89 88 87 88 88 89 90 92 91 91 91 90 88 89 89 87 87 87 85 84 82 84 86 83 85 86 86 84 85 83 86 86 87 86 86 85 86 78
94 92 90 89 88 87 89 88 91 91 92 92 93 91 90 90 90 89 87 88 88 87 85 83 82 82 85 87 80 81 78 72 85 84 83 86 86 87 87 86 85 84 84
94 92 90 88 88 87 88 89 88 90 89 91 91 91 90 89 90 88 88 86 81 84 82 80 80 80 80 77 82 80 76 75 80 83 80 84 85 85 86 86 85 85 83
96 95 92 89 87 88 87 88 84 86 85 89 86 83 83 89 88 88 83 85 83 83 83 81 82 75 77 79 73 84 81 79 73 72 76 82 80 81 82 83 83 82 84
98 96 92 89 87 88 87 86 87 85 90 92 87 82 87 86 86 86 85 82 82 79 79 81 77 73 72 78 82 77 75 71 74 68 70 77 73 83 80 77 78 79 80
101 99 95 90 87 87 87 85 86 85 85 90 87 83 84 85 85 84 86 83 81 80 79 80 78 75 76 75 74 74 71 69 70 69 68 72 75 80 83 82 81 79 73